Regional Weather Roundup
Issued by NWS Raleigh/Durham, NC

Home | Current Version | Previous Version | Text Only | Print | Product List | Glossary On
Versions: 1 2 3 4 5 6 7 8 9 10 11 12 13 14 15 16 17 18 19 20 21 22 23 24 25 26 27 28
000
ASUS42 KRAH 180310
RWRRAH
NORTH CAROLINA WEATHER ROUNDUP
NATIONAL WEATHER SERVICE RALEIGH NC
1100 PM EDT THU APR 17 2014

NOTE: "FAIR" INDICATES FEW OR NO CLOUDS BELOW 12,000 FEET WITH NO
SIGNIFICANT WEATHER AND/OR OBSTRUCTIONS TO VISIBILITY.

NCZ001-053-055-056-065-067-180400-
WESTERN NORTH CAROLINA

CITY           SKY/WX    TMP DP  RH WIND       PRES   REMARKS
ASHEVILLE      MOCLDY    45  30  55 CALM      30.42S
JEFFERSON      CLEAR     44  18  35 CALM      30.44S
MORGANTON      PTCLDY    38  33  82 N3        30.48F
HICKORY        PTCLDY    47  31  53 CALM      30.43S
RUTHERFORDTON  MOCLDY    49  31  49 NE3       30.43F
MOUNT AIRY     CLEAR     47  29  49 E3        30.45S
BOONE          PTCLDY    35  26  68 CALM      30.44F
$$

NCZ021-022-025-041-071-084-088-180400-
CENTRAL NORTH CAROLINA

CITY           SKY/WX    TMP DP  RH WIND       PRES   REMARKS
CHARLOTTE      CLEAR     56  29  35 NE8       30.43S
GREENSBORO     CLEAR     50  29  44 NE3       30.45R
WINSTON-SALEM  CLEAR     49  27  42 NE3       30.47R
RALEIGH-DURHAM CLEAR     51  39  63 E10       30.47R
FORT BRAGG     CLEAR     52  45  75 NE7       30.44R
FAYETTEVILLE   CLEAR     51  43  74 NE6       30.43S
CHAPEL HILL    CLEAR     50  40  68 NE6       30.47R
BURLINGTON     CLEAR     49  32  52 CALM      30.46R
LAURINBURG     CLEAR     49  43  80 NE7       30.42F
$$

NCZ011-015-027-028-043-044-047-080-103-180400-
NORTHEASTERN NORTH CAROLINA

CITY           SKY/WX    TMP DP  RH WIND       PRES   REMARKS
GREENVILLE     CLEAR     45  37  76 NE6       30.50R
WASHINGTON     CLEAR     44  40  85 NE7       30.49F
ELIZABETH CITY CLOUDY    46  40  79 NE15      30.52R
MANTEO         CLOUDY    46  43  91 NE18G24   30.47F
CAPE HATTERAS  CLOUDY    50  48  93 NE13G25   30.43F
$$

NCZ078-087-090-091-093-098-101-180400-
SOUTHEASTERN NORTH CAROLINA

CITY           SKY/WX    TMP DP  RH WIND       PRES   REMARKS
LUMBERTON      CLEAR     54  45  71 NE8       30.41F
GOLDSBORO      CLEAR     49  43  77 NE14      30.46R
KINSTON        CLEAR     48  39  72 NE10      30.48R
KENANSVILLE    CLEAR     49  41  73 NE3       30.48R
NEW BERN       CLEAR     48  42  80 N13       30.47F
CHERRY POINT   PTCLDY    49  41  74 NE17      30.45F
BEAUFORT       CLEAR     49  44  83 N13       30.43F
JACKSONVILLE   PTCLDY    50  43  77 NE10      30.44R
WILMINGTON     CLEAR     53  44  71 N8        30.43R
$$




USA.gov is the U.S. government's official web portal to all federal, state and local government web resources and services.